PBO Station Position Time Series. Reference Frame : NAM14
Format Version,1.1.0
4-character ID,TILL
Station name,Tillamook
Begin Date, 2008-08-24
End Date, 2019-10-07
Release Date, 2019-10-08
Reference position, 45.4551296724 North Latitude, -123.8307673515 East Longitude, -4.58355 meters elevation,
Date, North (mm), East (mm), Vertical (mm), North Std. Deviation (mm), East Std. Deviation (mm),              Vertical Std. Deviation (mm), Quality,
2008-08-24,0.00, 0.00, 0.00, 2.71, 1.81, 8.30, repro,
2008-08-25,-1.33, 0.26, 6.09, 2.23, 1.52, 7.02, repro,
2008-08-26,-0.86, 0.21, 3.61, 2.22, 1.52, 6.99, repro,
2008-08-27,-1.12, 2.02, 15.74, 2.26, 1.55, 7.13, repro,
2008-08-28,-2.23, 0.90, 10.65, 2.96, 1.92, 8.73, repro,
2008-08-29,-0.63, 0.21, 3.12, 2.24, 1.55, 7.06, repro,
2008-08-30,-2.00, 0.30, 10.14, 2.24, 1.55, 7.11, repro,
2008-08-31,0.41, 1.46, 3.26, 2.21, 1.53, 6.99, repro,
2008-09-01,1.16, 0.34, -3.01, 2.23, 1.53, 7.01, repro,
2008-09-02,-0.17, 1.21, 1.89, 2.66, 2.07, 9.00, repro,
2008-09-03,-0.98, 1.66, -0.45, 2.26, 1.57, 7.18, repro,
2008-09-04,0.08, 0.30, 0.82, 2.46, 1.69, 7.89, repro,
2008-09-05,-0.28, -0.34, 3.84, 2.26, 1.56, 7.19, repro,
2008-09-06,-1.34, 0.81, 0.06, 2.22, 1.53, 7.03, repro,
2008-09-07,-0.04, 1.64, 3.61, 2.24, 1.55, 7.16, repro,
2008-09-08,-2.79, 0.03, 5.08, 2.25, 1.55, 7.11, repro,
2008-09-09,-0.17, 0.64, 3.99, 2.30, 1.55, 7.19, repro,
2008-09-10,0.25, 0.11, 0.12, 2.28, 1.58, 7.21, repro,
2008-09-11,-2.11, 0.44, 7.19, 2.33, 1.62, 7.42, repro,
2008-09-12,-2.03, -0.07, 15.64, 2.24, 1.56, 7.14, repro,
2008-09-13,-0.76, -0.35, 12.98, 2.24, 1.54, 7.09, repro,
2008-09-14,-0.99, 0.83, 10.19, 2.27, 1.56, 7.17, repro,
2008-09-15,-1.18, 1.45, 5.29, 2.25, 1.54, 7.07, repro,
2008-09-16,-0.09, 0.05, 3.26, 2.24, 1.56, 7.18, repro,
2008-09-17,-0.28, 0.69, 1.14, 2.30, 1.58, 7.28, repro,
2008-09-18,-0.06, 0.73, 1.84, 2.23, 1.54, 6.99, repro,
2008-09-19,-0.09, -0.78, 6.10, 2.25, 1.54, 7.17, repro,
2008-09-20,1.12, 0.51, 9.35, 2.24, 1.52, 7.01, repro,
2008-09-21,-1.70, 2.15, 12.23, 2.29, 1.56, 7.17, repro,
2008-09-22,0.25, 0.20, 3.62, 2.23, 1.51, 7.04, repro,
2008-09-24,1.02, 0.54, 4.01, 2.30, 1.59, 7.19, repro,
2008-09-25,0.08, 1.27, 10.72, 2.31, 1.56, 7.20, repro,
2008-09-26,-0.52, 1.28, 7.85, 2.24, 1.52, 7.04, repro,
2008-09-27,-0.49, 1.24, 1.37, 2.26, 1.54, 7.05, repro,
2008-09-28,0.35, 0.72, 0.75, 2.20, 1.51, 6.93, repro,
2008-09-29,0.86, 1.81, 4.49, 2.21, 1.51, 6.86, repro,
2008-09-30,-1.24, -0.79, 8.83, 2.25, 1.52, 7.00, repro,
2008-10-01,-1.01, 0.63, 2.78, 2.26, 1.53, 7.10, repro,
2008-10-02,-1.56, 0.12, 18.10, 2.30, 1.56, 7.19, repro,
2008-10-03,-1.42, -0.82, 10.37, 2.26, 1.56, 7.13, repro,
2008-10-04,-2.89, -1.36, 13.65, 2.26, 1.54, 7.10, repro,
2008-10-05,-1.23, 0.53, 6.59, 2.23, 1.51, 6.95, repro,
2008-10-06,-2.00, 0.03, 14.19, 2.25, 1.52, 7.04, repro,
2008-10-07,1.43, 0.29, 5.87, 2.30, 1.55, 7.17, repro,
2008-10-08,0.17, 1.17, -1.71, 2.25, 1.54, 7.09, repro,
2008-10-09,2.01, 1.95, -4.26, 2.16, 1.49, 6.86, repro,
2008-10-10,1.96, 2.30, 0.41, 2.16, 1.49, 6.81, repro,
2008-10-11,0.73, 0.96, -2.35, 2.60, 1.79, 8.10, repro,
2008-10-12,-0.35, 1.62, -1.24, 2.18, 1.51, 6.92, repro,
2008-10-13,-0.07, 1.15, 3.94, 2.19, 1.52, 7.00, repro,
2008-10-14,1.82, 0.95, 4.31, 2.17, 1.50, 6.94, repro,
2008-10-15,1.27, 1.61, -1.69, 2.22, 1.51, 6.99, repro,
2008-10-16,3.19, 2.22, -0.49, 2.23, 1.54, 7.08, repro,
2008-10-17,1.34, 1.18, 2.33, 2.18, 1.52, 6.93, repro,
2008-10-18,1.03, 1.76, 0.10, 2.18, 1.52, 6.98, repro,
2008-10-19,0.25, 1.73, 1.98, 2.16, 1.51, 6.92, repro,
2008-10-20,-0.37, -1.17, 1.05, 2.19, 1.51, 7.00, repro,
2008-10-21,0.75, 2.36, -0.25, 2.18, 1.51, 6.98, repro,
2008-10-22,1.79, 2.27, -1.16, 2.15, 1.50, 6.82, repro,
2008-10-23,0.98, 2.36, -0.17, 2.21, 1.56, 7.13, repro,
2008-10-24,0.21, 1.67, 9.60, 3.09, 2.31, 10.54, repro,
2008-10-25,0.26, 2.10, 2.21, 2.16, 1.49, 6.87, repro,
2008-10-26,0.01, 2.13, -7.31, 2.15, 1.49, 6.84, repro,
2008-10-27,1.32, 1.74, -1.52, 2.16, 1.50, 6.89, repro,
2008-10-28,1.09, 1.35, -4.60, 2.26, 1.52, 6.97, repro,
2008-10-29,0.87, 1.09, 4.06, 2.28, 1.54, 7.11, repro,
2008-10-30,1.32, 1.05, 10.01, 2.20, 1.53, 7.05, repro,
2008-10-31,0.54, 0.77, 11.17, 2.24, 1.56, 7.11, repro,
2008-11-01,1.84, 1.22, 14.72, 2.19, 1.52, 6.93, repro,
2008-11-02,0.56, -0.02, 11.38, 2.19, 1.54, 7.04, repro,
2008-11-03,1.74, 0.40, 8.09, 2.20, 1.54, 7.05, repro,
2008-11-04,2.18, 0.62, 6.26, 2.19, 1.55, 7.08, repro,
2008-11-05,1.57, 2.37, 0.70, 2.17, 1.53, 6.94, repro,
2008-11-06,0.60, 1.56, -2.09, 2.19, 1.54, 6.98, repro,
2008-11-07,2.21, 1.05, -1.44, 2.22, 1.57, 7.19, repro,
2008-11-08,1.45, 2.36, 0.79, 2.27, 1.64, 7.46, repro,
2008-11-09,0.40, 1.08, 2.86, 2.19, 1.56, 7.11, repro,
2008-11-10,2.75, 2.23, 4.66, 2.19, 1.58, 7.12, repro,
2008-11-11,1.10, 1.90, 3.05, 2.28, 1.66, 7.56, repro,
2008-11-12,0.10, -1.61, 3.99, 2.17, 1.53, 6.97, repro,
2008-11-13,1.18, 1.96, 5.29, 2.23, 1.56, 7.14, repro,
2008-11-14,3.26, 2.84, 8.96, 2.74, 2.07, 9.16, repro,
2008-11-15,1.60, 3.16, -8.03, 2.19, 1.56, 7.10, repro,
2008-11-16,1.66, 2.80, 0.60, 2.21, 1.61, 7.25, repro,
2008-11-17,-0.62, 2.17, -4.22, 2.25, 1.60, 7.26, repro,
2008-11-18,2.91, 3.06, 0.65, 2.27, 1.65, 7.46, repro,
2008-11-19,3.79, 3.85, -7.42, 2.20, 1.58, 7.15, repro,
2008-11-20,0.31, 0.06, -0.82, 2.26, 1.62, 7.28, repro,
2008-11-21,0.95, 3.41, -1.86, 2.28, 1.68, 7.58, repro,
2008-11-22,3.65, 4.12, 7.61, 2.33, 1.67, 7.52, repro,
2008-11-23,1.95, 2.25, -4.79, 2.28, 1.62, 7.30, repro,
2008-11-24,3.64, 3.40, -2.20, 2.26, 1.62, 7.36, repro,
2008-11-25,1.96, 2.21, -4.47, 2.26, 1.63, 7.32, repro,
2008-11-26,4.11, 2.12, -1.13, 2.16, 1.53, 6.94, repro,
2008-11-27,4.00, 3.23, -3.84, 2.18, 1.56, 7.08, repro,
2008-11-28,2.50, 1.42, -0.82, 2.24, 1.63, 7.32, repro,
2008-11-29,1.72, 4.11, 3.00, 2.33, 1.71, 7.69, repro,
2008-11-30,2.19, 2.73, 6.47, 2.23, 1.55, 7.05, repro,
2008-12-01,2.18, 0.23, 4.16, 2.19, 1.53, 6.98, repro,
2008-12-02,2.27, 0.65, 3.40, 2.25, 1.61, 7.19, repro,
2008-12-03,3.32, 2.56, 2.73, 2.25, 1.60, 7.16, repro,
2008-12-04,1.59, 2.80, 5.08, 2.51, 1.93, 8.41, repro,
2008-12-05,3.15, 2.82, 3.54, 2.22, 1.59, 7.20, repro,
2008-12-06,3.79, 2.16, -0.08, 2.27, 1.68, 7.56, repro,
2008-12-07,2.90, 1.80, -0.32, 2.23, 1.68, 7.49, repro,
2008-12-08,2.62, 2.64, -3.86, 2.19, 1.60, 7.20, repro,
2008-12-09,4.23, 1.71, -14.47, 2.23, 1.57, 7.09, repro,
2008-12-10,3.00, 1.96, -6.34, 2.24, 1.57, 7.14, repro,
2008-12-11,2.86, 2.02, -0.28, 2.32, 1.61, 7.28, repro,
2008-12-12,5.28, 2.17, -5.66, 2.27, 1.62, 7.40, repro,
2008-12-13,3.28, -0.29, 1.88, 2.17, 1.54, 6.93, repro,
2008-12-14,4.60, 1.60, -1.24, 2.18, 1.52, 6.98, repro,
2008-12-15,4.75, 2.48, 2.02, 2.18, 1.52, 6.97, repro,
2008-12-16,2.48, 2.75, 6.16, 2.17, 1.51, 6.91, repro,
2008-12-17,3.25, 1.98, -5.41, 2.20, 1.50, 6.88, repro,
2008-12-18,2.47, 1.31, 0.13, 2.20, 1.57, 7.06, repro,
2008-12-19,4.45, 2.28, -0.71, 2.22, 1.53, 7.11, repro,
2008-12-20,2.75, 2.68, -9.96, 2.21, 1.57, 7.18, repro,
2008-12-21,3.46, 1.00, 5.01, 2.23, 1.55, 7.19, repro,
2008-12-22,3.89, 0.86, 1.64, 2.19, 1.52, 6.96, repro,
2008-12-23,3.77, 1.75, 3.88, 2.19, 1.52, 6.96, repro,
2008-12-24,3.14, 0.90, 2.40, 2.19, 1.53, 6.95, repro,
2008-12-25,4.04, -0.09, 10.22, 2.15, 1.52, 6.89, repro,
2008-12-26,2.00, 2.27, 2.84, 2.18, 1.52, 6.96, repro,
2008-12-27,2.65, 1.14, 7.44, 2.18, 1.51, 6.92, repro,
2008-12-28,3.02, 2.32, 1.30, 2.18, 1.50, 6.90, repro,
2008-12-29,1.00, 2.28, -8.09, 2.17, 1.52, 6.96, repro,
2008-12-30,3.47, 2.43, -6.28, 2.18, 1.54, 7.04, repro,
2008-12-31,1.30, 1.31, -1.00, 2.18, 1.52, 6.98, repro,
2009-01-01,1.91, 2.17, -2.47, 2.16, 1.49, 6.85, repro,
2009-01-02,4.72, 1.90, -3.55, 2.16, 1.50, 6.86, repro,
2009-01-03,2.49, 2.99, -3.29, 2.19, 1.52, 6.98, repro,
2009-01-04,2.44, 3.47, -4.39, 2.14, 1.50, 6.82, repro,
2009-01-05,2.27, 2.79, 6.24, 2.18, 1.56, 7.13, repro,
2009-01-06,2.08, 0.29, -5.84, 2.22, 1.56, 7.16, repro,
2009-01-07,-0.52, -1.30, -0.40, 2.20, 1.50, 6.95, repro,
2009-01-08,2.75, 0.43, -1.73, 2.21, 1.55, 7.10, repro,
2009-01-09,3.44, 4.48, -9.24, 2.23, 1.56, 7.19, repro,
2009-01-10,3.18, 5.69, -14.21, 2.15, 1.50, 6.85, repro,
2009-01-11,4.06, 4.41, -12.48, 2.16, 1.50, 6.89, repro,
2009-01-12,3.46, 4.86, -7.75, 2.15, 1.49, 6.85, repro,
2009-01-13,3.87, 4.97, -9.26, 2.14, 1.50, 6.85, repro,
2009-01-14,3.52, 3.97, -9.89, 2.15, 1.50, 6.87, repro,
2009-01-15,1.63, 4.37, -11.77, 2.15, 1.51, 6.89, repro,
2009-01-16,2.74, 4.53, -9.52, 2.14, 1.51, 6.91, repro,
2009-01-17,4.12, 4.05, -10.26, 2.16, 1.50, 6.91, repro,
2009-01-18,4.64, 3.51, -5.70, 2.15, 1.50, 6.88, repro,
2009-01-19,3.17, 4.11, -8.51, 2.14, 1.50, 6.87, repro,
2009-01-20,1.57, 4.19, -7.99, 2.14, 1.50, 6.88, repro,
2009-01-21,1.81, 4.14, -5.37, 2.16, 1.51, 6.96, repro,
2009-01-22,3.77, 4.51, -4.49, 2.15, 1.51, 6.95, repro,
2009-01-23,1.17, 4.76, -11.67, 2.50, 1.74, 8.07, repro,
2009-01-26,2.58, 3.77, -3.22, 3.48, 2.62, 11.27, repro,
2009-01-27,0.95, 3.40, -0.96, 2.14, 1.51, 6.88, repro,
2009-01-28,1.13, 4.97, -8.37, 2.14, 1.50, 6.89, repro,
2009-01-29,1.33, 4.51, -8.48, 2.15, 1.51, 6.96, repro,
2009-01-30,2.44, 4.76, -7.44, 2.15, 1.52, 6.94, repro,
2009-01-31,3.32, 4.29, -6.30, 2.15, 1.51, 6.93, repro,
2009-02-01,0.75, 4.39, -6.38, 2.13, 1.51, 6.86, repro,
2009-02-02,2.27, 4.14, -8.60, 2.14, 1.50, 6.90, repro,
2009-02-03,2.66, 2.86, -11.68, 2.14, 1.51, 6.87, repro,
2009-02-04,2.13, 3.69, -7.12, 2.16, 1.51, 6.95, repro,
2009-02-05,0.13, 3.09, 0.50, 2.23, 1.60, 7.30, repro,
2009-02-06,1.35, 2.32, -0.11, 2.18, 1.55, 7.04, repro,
2009-02-07,0.66, 3.95, -6.55, 2.13, 1.52, 6.88, repro,
2009-02-08,2.50, 2.62, -3.05, 2.16, 1.54, 6.96, repro,
2009-02-09,0.89, 1.73, 0.64, 2.16, 1.54, 7.00, repro,
2009-02-10,2.22, 3.48, -3.62, 2.13, 1.51, 6.88, repro,
2009-02-11,2.16, 3.59, -3.39, 2.23, 1.59, 7.20, repro,
2009-02-12,1.56, 2.91, -4.47, 2.19, 1.55, 7.04, repro,
2009-02-13,1.79, 3.76, -1.99, 2.17, 1.56, 7.02, repro,
2009-02-14,1.28, 3.32, -1.67, 2.13, 1.51, 6.87, repro,
2009-02-15,2.35, 2.20, 1.53, 2.18, 1.54, 7.08, repro,
2009-02-16,0.98, 2.85, 3.35, 2.14, 1.51, 6.87, repro,
2009-02-17,0.97, 3.21, 2.48, 2.17, 1.51, 6.88, repro,
2009-02-18,1.18, 3.69, -1.93, 2.15, 1.54, 7.01, repro,
2009-02-19,1.40, 4.61, -5.04, 2.17, 1.54, 7.05, repro,
2009-02-20,2.01, 3.82, -11.76, 2.15, 1.54, 7.05, repro,
2009-02-21,1.58, 3.40, -5.35, 2.16, 1.54, 7.07, repro,
2009-02-22,-0.04, 2.09, 2.55, 2.15, 1.52, 6.94, repro,
2009-02-23,2.51, 2.62, -9.36, 2.19, 1.55, 7.04, repro,
2009-02-24,-0.56, 0.48, 2.56, 2.29, 1.68, 7.43, repro,
2009-02-25,-0.00, 0.33, -10.22, 187.82, 180.50, 343.14, repro,
2009-02-26,2.87, 3.59, -6.95, 2.15, 1.55, 7.03, repro,
2009-02-27,2.03, 3.90, -10.44, 2.23, 1.59, 7.31, repro,
2009-02-28,1.84, 4.11, -12.67, 2.16, 1.54, 7.05, repro,
2009-03-01,0.86, 3.92, -1.06, 2.17, 1.57, 7.17, repro,
2009-03-02,1.48, 3.16, 4.73, 2.13, 1.52, 6.93, repro,
2009-03-03,2.34, 2.36, 0.25, 2.16, 1.58, 7.09, repro,
2009-03-04,1.54, 2.88, 0.24, 2.11, 1.53, 6.90, repro,
2009-03-05,2.04, 3.41, -4.68, 2.15, 1.54, 7.02, repro,
2009-03-06,2.81, 3.75, -0.31, 2.21, 1.62, 7.33, repro,
2009-03-07,1.85, 4.42, -7.90, 2.13, 1.51, 6.88, repro,
2009-03-08,3.12, 3.08, -8.01, 2.12, 1.53, 6.88, repro,
2009-03-09,4.05, 7.29, -9.24, 2.14, 1.56, 7.03, repro,
2009-03-10,1.98, 4.09, -8.12, 2.15, 1.55, 7.03, repro,
2009-03-11,3.08, 3.80, -7.13, 2.13, 1.51, 6.88, repro,
2009-03-12,0.84, 3.89, -6.74, 2.19, 1.59, 7.19, repro,
2009-03-13,1.48, 3.74, -5.29, 2.15, 1.55, 7.02, repro,
2009-03-14,3.66, 2.65, 2.25, 2.12, 1.52, 6.86, repro,
2009-03-15,1.81, 2.32, 1.92, 2.12, 1.53, 6.88, repro,
2009-03-16,1.56, 3.00, -7.66, 2.14, 1.53, 6.94, repro,
2009-03-17,2.32, 1.98, -0.26, 2.15, 1.52, 6.88, repro,
2009-03-18,3.07, 5.62, -10.28, 2.12, 1.50, 6.81, repro,
2009-03-19,0.80, 4.04, -5.01, 2.14, 1.52, 6.90, repro,
2009-03-20,2.67, 3.08, -4.65, 2.13, 1.52, 6.89, repro,
2009-03-21,2.04, 2.98, -3.98, 2.11, 1.51, 6.79, repro,
2009-03-22,1.12, 3.14, 0.96, 2.11, 1.52, 6.81, repro,
2009-03-23,1.46, 4.21, -4.21, 2.13, 1.51, 6.81, repro,
2009-03-24,1.55, 4.42, -4.51, 2.13, 1.52, 6.87, repro,
2009-03-25,2.64, 3.79, -2.89, 2.15, 1.53, 6.92, repro,
2009-03-26,2.70, 4.12, -7.66, 2.15, 1.53, 6.92, repro,
2009-03-27,2.28, 3.71, -4.02, 2.16, 1.52, 6.88, repro,
2009-03-28,0.67, 2.80, -3.37, 2.18, 1.53, 6.93, repro,
2009-03-29,1.74, 2.22, -6.22, 2.21, 1.54, 7.04, repro,
2009-03-30,1.72, 4.39, -3.44, 2.20, 1.54, 7.05, repro,
2009-03-31,1.90, 2.11, -4.79, 2.18, 1.54, 7.01, repro,
2009-04-01,2.63, 4.36, 3.36, 2.17, 1.53, 6.92, repro,
2009-04-02,1.42, 1.23, -2.88, 2.23, 1.57, 7.12, repro,
2009-04-03,2.68, 4.12, -6.96, 2.25, 1.59, 7.12, repro,
2009-04-04,1.43, 3.84, -4.47, 2.19, 1.53, 6.99, repro,
2009-04-05,1.74, 3.81, -6.96, 2.20, 1.54, 7.05, repro,
2009-04-06,1.27, 4.26, -8.76, 2.19, 1.52, 6.96, repro,
2009-04-07,1.76, 3.04, -6.40, 2.17, 1.52, 6.88, repro,
2009-04-08,1.99, 3.42, -0.38, 2.19, 1.53, 6.98, repro,
2009-04-09,0.87, 3.61, -0.41, 2.18, 1.52, 6.94, repro,
2009-04-10,1.31, 3.31, -4.89, 2.19, 1.53, 6.98, repro,
2009-04-11,1.52, 2.90, -1.44, 2.24, 1.57, 7.15, repro,
2009-04-12,1.94, 3.07, -4.44, 2.19, 1.52, 6.96, repro,
2009-04-13,-1.93, -0.81, -8.03, 2.24, 1.56, 7.11, repro,
2009-04-14,2.31, 2.74, -2.51, 2.20, 1.53, 7.00, repro,
2009-04-15,2.57, 2.90, -1.15, 2.19, 1.52, 6.97, repro,
2009-04-16,1.51, 3.54, -2.98, 2.22, 1.54, 7.11, repro,
2009-04-17,1.22, 4.53, -5.56, 2.23, 1.55, 7.10, repro,
2009-04-18,1.58, 4.38, -10.35, 2.20, 1.52, 7.00, repro,
2009-04-19,1.46, 4.34, -7.63, 2.17, 1.52, 6.91, repro,
2009-04-20,1.62, 3.94, -6.30, 2.18, 1.52, 6.92, repro,
2009-04-21,2.73, 3.87, -1.96, 2.23, 1.54, 7.09, repro,
2009-04-22,1.40, 2.39, -0.10, 2.21, 1.52, 7.01, repro,
2009-04-23,0.49, 3.28, -0.16, 2.26, 1.57, 7.20, repro,
2009-04-24,0.07, 3.52, -3.40, 2.27, 1.57, 7.15, repro,
2009-04-25,0.01, 3.92, -0.45, 2.20, 1.52, 6.97, repro,
2009-04-26,0.24, 3.05, -4.35, 2.19, 1.51, 6.96, repro,
2009-04-27,0.69, 3.19, -0.72, 2.22, 1.53, 7.05, repro,
2009-04-28,0.61, 3.56, -2.16, 2.25, 1.55, 7.15, repro,
2009-04-29,2.24, 4.68, -6.15, 2.28, 1.62, 7.33, repro,
2009-04-30,0.52, 3.66, -8.05, 2.26, 1.59, 7.20, repro,
2009-05-01,0.30, 3.00, 0.32, 2.19, 1.51, 6.92, repro,
2009-05-02,1.27, 2.88, -6.25, 2.21, 1.52, 6.97, repro,
2009-05-03,0.80, 2.05, 1.19, 2.20, 1.52, 7.01, repro,
2009-05-04,0.83, 4.88, 3.20, 2.22, 1.54, 7.05, repro,
2009-05-05,-0.24, 1.65, 4.12, 2.21, 1.53, 7.03, repro,
2009-05-06,2.24, 2.48, 1.21, 2.25, 1.54, 7.11, repro,
2009-05-07,-0.55, 1.45, -2.22, 2.19, 1.51, 6.95, repro,
2009-05-08,1.50, 5.46, -6.94, 2.19, 1.51, 6.94, repro,
2009-05-09,1.58, 4.19, -10.56, 2.17, 1.51, 6.90, repro,
2009-05-10,1.33, 5.21, -6.68, 2.20, 1.52, 6.96, repro,
2009-05-11,0.21, 5.87, -6.14, 2.20, 1.52, 6.98, repro,
2009-05-12,-0.29, 2.71, -2.72, 2.23, 1.56, 7.13, repro,
2009-05-13,1.95, 5.01, -7.69, 2.27, 1.59, 7.15, repro,
2009-05-14,3.25, 1.88, -5.28, 2.25, 1.61, 7.29, repro,
2009-05-15,3.20, 4.52, -8.82, 2.19, 1.52, 6.95, repro,
2009-05-16,1.46, 5.22, -11.50, 2.19, 1.52, 6.98, repro,
2009-05-17,0.78, 5.08, -11.02, 2.19, 1.52, 6.96, repro,
2009-05-18,2.06, 4.01, -3.66, 2.20, 1.53, 7.04, repro,
2009-05-19,2.40, 4.42, -8.01, 2.26, 1.61, 7.34, repro,
2009-05-20,1.82, 4.38, -2.92, 2.20, 1.52, 7.02, repro,
2009-05-21,1.58, 4.64, -6.20, 2.20, 1.52, 7.03, repro,
2009-05-22,1.57, 4.03, -7.12, 2.26, 1.55, 7.10, repro,
2009-05-23,-0.09, 4.94, -7.92, 2.20, 1.52, 7.02, repro,
2009-05-24,1.81, 4.06, -12.57, 2.19, 1.51, 6.97, repro,
2009-05-25,1.09, 4.53, -9.14, 2.17, 1.51, 6.91, repro,
2009-05-26,1.50, 4.27, -2.20, 2.19, 1.51, 6.99, repro,
2009-05-27,1.01, 4.64, -1.28, 2.20, 1.51, 6.99, repro,
2009-05-28,0.66, 3.70, -3.46, 2.19, 1.53, 7.05, repro,
2009-05-29,0.12, 3.54, -7.22, 2.19, 1.52, 7.02, repro,
2009-05-30,1.25, 3.56, -8.08, 2.20, 1.51, 7.03, repro,
2009-05-31,1.37, 2.96, -8.97, 2.19, 1.51, 7.02, repro,
2009-06-01,-0.38, 4.40, -4.59, 2.19, 1.51, 7.00, repro,
2009-06-02,0.64, 4.41, -7.50, 2.18, 1.51, 6.99, repro,
2009-06-03,0.87, 2.52, -7.91, 2.19, 1.52, 7.04, repro,
2009-06-04,1.05, 2.95, -8.83, 2.20, 1.52, 7.03, repro,
2009-06-05,2.90, 3.99, -2.58, 2.18, 1.52, 6.99, repro,
2009-06-06,1.57, 3.63, -5.01, 2.23, 1.54, 7.10, repro,
2009-06-07,2.05, 3.64, -4.06, 2.19, 1.50, 6.96, repro,
2009-06-08,2.22, 3.55, -2.63, 2.22, 1.56, 7.08, repro,
2009-06-09,1.72, 3.36, -4.16, 2.19, 1.51, 6.98, repro,
2009-06-10,0.83, 3.16, -4.92, 2.18, 1.51, 6.98, repro,
2009-06-11,1.79, 3.98, -6.35, 2.20, 1.52, 7.04, repro,
2009-06-12,0.82, 3.87, -7.08, 2.19, 1.51, 6.99, repro,
2009-06-13,0.34, 3.76, -4.88, 2.18, 1.51, 6.92, repro,
2009-06-14,2.20, 4.14, -7.24, 2.20, 1.57, 7.17, repro,
2009-06-15,-0.24, 3.39, -5.29, 2.17, 1.51, 6.94, repro,
2009-06-16,1.71, 3.48, -10.54, 2.21, 1.53, 7.04, repro,
2009-06-17,1.35, 3.56, -5.48, 2.20, 1.52, 7.02, repro,
2009-06-18,1.82, 3.39, -5.72, 2.18, 1.51, 6.94, repro,
2009-06-19,0.54, 2.46, -3.81, 2.21, 1.54, 7.12, repro,
2009-06-20,1.03, 3.82, -2.08, 2.23, 1.57, 7.19, repro,
2009-06-21,2.05, 2.93, -3.63, 2.15, 1.51, 6.90, repro,
2009-06-22,0.46, 3.53, -3.45, 2.23, 1.55, 7.23, repro,
2009-06-23,1.22, 4.34, -6.93, 2.19, 1.52, 7.00, repro,
2009-06-24,1.32, 2.98, 1.26, 2.24, 1.57, 7.18, repro,
2009-06-25,-0.61, 4.06, -5.35, 2.27, 1.59, 7.35, repro,
2009-06-26,2.01, 3.04, -4.13, 2.18, 1.54, 7.00, repro,
2009-06-27,0.16, 3.34, -7.17, 2.28, 1.59, 7.37, repro,
2009-06-28,0.88, 2.85, -8.28, 2.46, 1.70, 7.78, repro,
2009-06-29,1.39, 4.83, -9.29, 2.32, 1.62, 7.49, repro,
2009-06-30,-1.63, 3.67, -5.99, 2.17, 1.55, 7.01, repro,
2009-07-01,1.89, 3.47, -5.65, 2.19, 1.54, 7.08, repro,
2009-07-02,0.16, 2.93, -0.58, 2.18, 1.51, 6.94, repro,
2009-07-03,0.30, 3.18, -2.33, 2.17, 1.51, 6.94, repro,
2009-07-04,0.69, 4.51, -11.12, 2.18, 1.53, 7.00, repro,
2009-07-05,0.71, 3.60, 0.41, 2.17, 1.52, 6.96, repro,
2009-07-06,-0.66, 3.59, -0.66, 2.16, 1.52, 6.98, repro,
2009-07-07,-0.56, 3.46, -2.67, 2.18, 1.52, 6.95, repro,
2009-07-08,0.77, 2.85, 3.68, 2.16, 1.51, 6.88, repro,
2009-07-09,0.51, 3.10, -0.43, 2.17, 1.52, 6.88, repro,
2009-07-10,1.38, 4.42, -6.53, 2.16, 1.53, 6.95, repro,
2009-07-11,-0.01, 3.20, 0.15, 2.17, 1.53, 7.02, repro,
2009-07-12,-0.19, 2.80, 3.37, 2.83, 2.08, 9.52, repro,
2009-07-13,-0.20, 3.18, -5.62, 2.16, 1.51, 6.88, repro,
2009-07-14,-0.02, 3.41, -0.95, 2.17, 1.52, 6.97, repro,
2009-07-15,-0.01, 3.48, -0.17, 2.15, 1.52, 6.91, repro,
2009-07-16,1.33, 4.68, -5.21, 2.15, 1.52, 6.88, repro,
2009-07-17,-0.15, 4.44, -5.75, 2.16, 1.53, 6.96, repro,
2009-07-18,0.31, 2.14, 4.37, 2.25, 1.57, 7.28, repro,
2009-07-19,0.80, 3.65, -4.05, 2.16, 1.51, 6.86, repro,
2009-07-20,0.78, 3.78, -5.85, 2.16, 1.51, 6.92, repro,
2009-07-21,-1.00, 3.61, 2.92, 2.16, 1.53, 6.93, repro,
2009-07-22,-0.24, 4.61, 1.44, 2.16, 1.52, 6.93, repro,
2009-07-23,-1.08, 2.27, 3.05, 2.17, 1.52, 6.97, repro,
2009-07-24,-1.73, 3.02, -2.07, 2.20, 1.57, 7.20, repro,
2009-07-25,-0.56, 3.55, -3.66, 2.22, 1.55, 7.10, repro,
2009-07-26,-0.92, 2.87, -1.66, 2.26, 1.58, 7.29, repro,
2009-07-27,-0.75, 3.92, 1.30, 2.16, 1.53, 6.97, repro,
2009-07-28,1.10, 4.13, -3.63, 2.28, 1.61, 7.26, repro,
2009-07-29,0.22, 2.54, -2.50, 2.18, 1.53, 7.01, repro,
2009-07-30,-0.83, 3.19, 0.95, 2.20, 1.54, 7.03, repro,
2009-07-31,-0.47, 2.79, -1.13, 2.17, 1.52, 6.96, repro,
2009-08-01,0.80, 2.04, 2.23, 2.17, 1.53, 7.01, repro,
2009-08-02,0.60, 2.66, 2.26, 2.20, 1.58, 7.20, repro,
2009-08-03,-0.17, 3.22, 1.92, 2.22, 1.57, 7.09, repro,
2009-08-04,-0.75, 2.50, 1.69, 2.82, 2.08, 9.53, repro,
2009-08-05,-0.93, 1.75, -1.21, 2.23, 1.55, 7.17, repro,
2009-08-06,0.26, 1.64, -0.75, 2.15, 1.52, 6.90, repro,
2009-08-07,-1.45, 2.26, 4.17, 2.58, 1.94, 8.91, repro,
2009-08-08,-0.43, 3.52, 0.08, 2.20, 1.55, 7.11, repro,
2009-08-09,-0.99, 2.51, -0.53, 2.17, 1.53, 6.97, repro,
2009-08-10,-1.49, 2.83, -3.44, 2.17, 1.53, 6.96, repro,
2009-08-11,0.18, 2.99, -4.87, 2.19, 1.53, 7.01, repro,
2009-08-12,-3.09, 2.72, 9.02, 2.21, 1.54, 7.08, repro,
2009-08-13,0.29, 2.26, -1.29, 2.25, 1.58, 7.17, repro,
2009-08-14,-0.18, 3.00, -3.95, 2.18, 1.54, 6.93, repro,
2009-08-15,-1.34, 1.61, 2.01, 2.23, 1.55, 7.08, repro,
2009-08-16,-0.89, 2.24, 1.52, 2.30, 1.59, 7.20, repro,
2009-08-17,-1.55, 2.88, 1.34, 2.21, 1.53, 7.01, repro,
2009-08-18,-0.73, 1.91, 9.96, 2.32, 1.60, 7.26, repro,
2009-08-19,-0.75, 1.54, 1.73, 2.20, 1.55, 7.01, repro,
2009-08-20,-1.89, 1.23, 2.12, 2.19, 1.56, 7.02, repro,
2009-08-21,-2.03, 1.18, 2.21, 2.25, 1.59, 7.20, repro,
2009-08-22,-1.08, 2.23, -1.56, 2.25, 1.58, 7.20, repro,
2009-08-23,-1.91, 0.71, 7.04, 2.33, 1.66, 7.61, repro,
2009-08-24,-2.39, -0.27, 8.97, 2.23, 1.58, 7.12, repro,
2009-08-25,-3.02, 0.88, 9.14, 2.26, 1.62, 7.30, repro,
2009-08-26,-3.05, -0.40, 7.32, 2.23, 1.57, 7.16, repro,
2009-08-27,-2.02, -0.25, 5.23, 2.26, 1.59, 7.23, repro,
2009-08-28,-2.46, 0.03, 2.16, 2.22, 1.56, 7.10, repro,
2009-08-29,-1.23, -1.52, 2.01, 2.19, 1.54, 6.95, repro,
2009-08-30,-1.27, -0.57, 6.00, 2.18, 1.54, 6.90, repro,
2009-08-31,-1.76, -1.24, 3.48, 2.19, 1.55, 7.00, repro,
2009-09-01,-3.81, -2.35, 5.50, 2.23, 1.56, 7.10, repro,
2009-09-02,-2.63, -1.69, 4.32, 2.19, 1.54, 6.98, repro,
2009-09-03,-2.18, -1.86, 2.91, 2.17, 1.54, 6.95, repro,
2009-09-04,-0.69, -1.60, -1.05, 2.18, 1.56, 7.02, repro,
2009-09-05,-0.82, -3.38, 4.94, 2.22, 1.60, 7.23, repro,
2009-09-06,-0.80, -3.45, 13.51, 2.28, 1.60, 7.32, repro,
2009-09-07,-0.00, -3.19, 0.82, 2.21, 1.55, 7.10, repro,
2009-09-08,-2.71, -3.16, 8.16, 2.75, 2.19, 9.36, repro,
2009-09-09,-3.47, -1.60, 10.49, 2.19, 1.56, 7.05, repro,
2009-09-10,-2.33, -1.98, 4.44, 2.20, 1.56, 7.06, repro,
2009-09-11,-0.66, -2.29, 3.24, 2.26, 1.59, 7.13, repro,
2009-09-12,-1.79, -1.59, 4.93, 2.17, 1.53, 6.97, repro,
2009-09-13,-2.26, -1.27, 9.87, 2.25, 1.62, 7.28, repro,
2009-09-14,0.27, -2.70, 8.09, 2.16, 1.53, 6.92, repro,
2009-09-15,-2.16, -2.72, 5.92, 2.17, 1.54, 6.95, repro,
2009-09-16,0.18, -2.84, -0.00, 2.52, 1.79, 7.99, repro,
2009-09-17,0.02, -2.13, 0.83, 2.19, 1.56, 7.06, repro,
2009-09-18,-2.95, -0.71, 8.43, 2.22, 1.58, 7.23, repro,
2009-09-19,-2.39, -1.09, 5.30, 2.19, 1.54, 7.01, repro,
2009-09-20,-1.30, -2.43, -0.71, 2.16, 1.54, 7.01, repro,
2009-09-21,-1.41, -1.47, 3.31, 2.16, 1.54, 6.96, repro,
2009-09-22,-2.37, -2.60, 1.54, 2.22, 1.58, 7.12, repro,
2009-09-23,-1.75, -2.00, -1.25, 2.21, 1.57, 7.08, repro,
2009-09-24,-4.08, -0.45, 6.85, 2.17, 1.53, 6.95, repro,
2009-09-25,-2.27, -2.50, 2.86, 2.19, 1.57, 7.12, repro,
2009-09-26,-2.44, -1.91, 4.98, 2.18, 1.54, 7.03, repro,
2009-09-27,-2.49, -2.10, 5.87, 2.17, 1.54, 6.96, repro,
2009-09-28,-3.71, -3.12, 5.91, 2.25, 1.57, 7.21, repro,
2009-09-29,-2.73, -2.72, -1.05, 2.26, 1.60, 7.32, repro,
2009-09-30,-0.50, -0.78, 7.42, 2.17, 1.54, 6.97, repro,
2009-10-01,-1.92, -2.80, 3.95, 2.34, 1.67, 7.48, repro,
2009-10-02,-1.29, -1.90, 4.45, 2.17, 1.54, 6.98, repro,
2009-10-03,0.35, -1.48, 8.13, 2.17, 1.56, 7.02, repro,
2009-10-04,-0.68, -2.44, -3.23, 2.18, 1.55, 7.07, repro,
2009-10-05,-1.62, -2.23, 7.00, 2.19, 1.55, 7.07, repro,
2009-10-06,-1.39, -1.48, 7.12, 2.17, 1.54, 7.02, repro,
2009-10-07,-0.83, -2.71, 7.07, 2.24, 1.57, 7.09, repro,
2009-10-08,-0.83, -1.65, 7.07, 2.25, 1.58, 7.10, repro,
2009-10-09,-1.33, -1.57, 1.32, 2.18, 1.55, 7.07, repro,
2009-10-10,-3.22, -0.99, 4.90, 2.18, 1.56, 7.17, repro,
2009-10-11,-1.11, -1.20, 7.13, 2.20, 1.60, 7.22, repro,
2009-10-12,-1.49, -1.60, 7.67, 2.17, 1.54, 7.04, repro,
2009-10-13,-1.50, -2.52, 15.33, 2.17, 1.56, 7.04, repro,
2009-10-14,-6.03, -2.87, 10.84, 2.26, 1.60, 7.21, repro,
2009-10-15,-0.27, -0.54, 7.23, 2.20, 1.61, 7.26, repro,
2009-10-16,1.87, -2.59, 11.97, 2.26, 1.66, 7.53, repro,
2009-10-17,0.30, -3.08, -0.82, 2.26, 1.61, 7.33, repro,
2009-10-18,-0.02, -1.00, 9.33, 2.27, 1.61, 7.41, repro,
2009-10-19,0.26, -1.36, 9.09, 2.20, 1.58, 7.12, repro,
2009-10-20,-1.03, -1.19, 1.02, 2.19, 1.63, 7.24, repro,
2009-10-21,-1.68, -2.04, 10.68, 2.20, 1.62, 7.26, repro,
2009-10-22,-0.48, 0.04, 5.44, 2.24, 1.62, 7.31, repro,
2009-10-23,-1.37, 0.66, 4.64, 2.83, 2.20, 9.91, repro,
2009-10-24,0.73, 0.01, 7.58, 2.30, 1.63, 7.36, repro,
2009-10-25,0.11, 0.72, 5.73, 2.24, 1.63, 7.28, repro,
2009-10-26,-1.94, -1.81, 9.46, 2.23, 1.65, 7.39, repro,